Location: Squirrel Cove
(50.1074°N, 124.9139°W)
Time: 13:52:16
(UTC-07:00)

PCSat - Pass Details

Date: 21 May 2022
Orbit: 784 x 795 km, 67.1° (Epoch: 26 June)

Event Time Altitude Azimuth Distance (km) Brightness Sun altitude
Rises 01:14:56 0° 320° (NW) 3,305 13.6 -19.7°
Reaches altitude 10° 01:18:13 10° 340° (NNW) 2,374 13.1 -19.7°
Maximum altitude 01:21:47 17° 21° (NNE) 1,908 12.4 -19.7°
Drops below altitude 10° 01:25:21 10° 62° (ENE) 2,371 12.4 -19.7°
Sets 01:28:37 0° 82° (E) 3,298 12.9 -19.6°
